Wind_Speed
12 13 13 14 14 15 15 15 15 15 15 15 15 15 15 15 14 15 15 15 15 14 12 9 9 7 6 7 8 9 10 8 8 7 9 10 11 12 12 10 9 7 4 4 3 5 7 8 9 7 6 5 4 3 3 2 2 3 4 5 6 6 5 0 3 3 3 4 2 6 7 8 6 7 5 1 6 11 9 10 9 9 9 4 5 5 10 20
11 11 12 13 14 14 15 15 15 15 15 15 15 15 15 14 14 14 14 15 15 15 14 10 9 8 6 7 8 9 9 8 10 12 13 13 11 11 11 10 10 7 5 3 4 7 8 7 7 8 7 5 3 3 4 3 3 5 4 5 6 6 2 2 4 4 4 6 1 3 6 8 6 5 7 6 10 11 13 13 10 12 12 9 9 9 15 19
11 11 12 13 14 14 14 15 15 15 15 15 15 15 15 15 14 14 14 14 15 16 15 12 8 8 7 6 6 7 7 8 12 11 13 16 13 11 10 9 9 7 6 5 5 7 7 7 6 8 7 6 4 4 4 3 3 5 4 6 5 3 2 2 3 4 4 4 4 4 4 7 7 3 7 7 11 12 14 13 11 14 15 14 13 14 17 18
12 12 12 13 14 14 15 15 15 16 16 16 15 15 15 15 15 14 14 14 14 15 16 13 9 8 7 6 5 5 4 8 8 4 10 15 14 12 10 8 8 8 7 6 6 5 6 7 6 8 7 6 4 3 5 4 3 2 4 7 4 2 4 3 2 3 3 3 7 5 2 7 7 5 7 7 10 12 13 13 15 15 16 16 15 17 19 19
12 13 13 14 14 15 15 15 16 16 16 16 16 16 16 15 15 15 14 14 14 14 15 13 10 8 7 5 3 3 3 5 2 3 10 15 14 13 10 8 7 8 7 6 5 4 6 5 5 6 6 6 5 4 7 6 3 2 7 10 5 2 5 1 2 0 1 2 6 7 6 5 3 6 10 11 12 11 6 5 11 14 13 11 16 18 18 19
12 13 13 14 15 15 15 16 16 17 17 17 17 17 17 16 16 15 15 15 14 15 15 12 9 9 6 4 2 4 5 4 2 3 10 14 13 11 9 7 6 7 6 5 5 5 6 5 5 6 6 7 7 7 5 6 4 5 8 9 6 5 6 2 2 2 2 4 7 7 6 3 4 9 11 14 17 15 5 1 3 6 5 6 17 18 17 18
14 14 14 14 15 15 16 16 17 17 18 18 18 18 18 18 17 17 16 16 15 15 14 10 8 7 4 0 2 4 8 6 0 4 9 11 12 10 8 6 5 6 6 6 6 6 6 6 7 6 6 7 7 8 4 5 5 7 8 7 5 5 7 5 2 3 4 7 8 4 4 6 11 11 9 15 19 18 13 5 4 4 3 8 15 16 17 19
15 15 15 15 15 16 16 17 17 18 18 18 19 19 18 19 18 18 17 17 16 15 14 10 6 4 1 2 1 5 8 6 3 6 9 10 10 9 7 4 5 6 6 7 6 6 6 7 7 4 7 6 3 5 3 3 8 10 10 7 3 3 7 8 4 5 6 7 7 4 7 12 14 10 11 18 18 17 16 12 8 7 7 10 14 16 17 18
15 15 15 16 16 16 17 17 18 19 19 19 19 19 18 19 19 19 18 18 18 16 13 8 5 3 4 4 4 6 5 3 5 7 9 11 10 8 6 4 5 5 5 6 5 6 5 5 4 2 7 6 4 4 2 4 6 6 8 6 5 6 8 8 8 9 9 7 6 8 13 14 10 6 12 21 20 18 17 16 13 10 11 12 13 15 16 17
16 15 16 16 16 17 17 17 18 19 19 20 20 19 18 18 18 19 18 19 19 17 11 6 4 4 6 5 5 6 2 1 5 7 8 9 8 6 6 5 6 6 5 4 4 6 4 4 2 1 5 5 5 4 2 4 3 3 7 8 9 11 10 8 10 11 8 7 9 11 13 13 5 2 12 14 10 13 14 16 16 13 13 14 13 14 15 16
17 17 16 16 16 17 17 17 18 18 19 20 20 20 19 18 18 19 19 20 20 15 10 5 4 5 6 5 7 5 1 1 4 5 6 7 7 6 6 6 6 6 6 5 3 3 4 3 2 1 3 2 3 3 3 3 4 5 7 9 13 14 12 11 12 11 7 6 10 11 11 12 6 6 17 12 4 7 12 13 14 14 13 13 14 14 13 14
19 18 18 18 18 18 17 17 18 19 19 20 20 20 19 18 18 19 20 21 19 13 7 4 5 6 6 7 8 6 3 2 4 5 5 6 7 6 6 6 6 7 6 5 3 3 2 1 3 6 3 2 4 3 2 2 3 6 6 10 14 12 13 15 14 11 9 6 8 7 8 12 13 15 23 16 8 9 11 12 13 14 13 13 14 13 12 14
20 20 20 20 19 19 19 18 18 19 20 20 20 20 19 18 18 18 20 21 17 9 5 3 4 6 5 5 5 7 7 6 5 4 5 6 5 5 5 5 6 7 7 5 3 5 5 3 3 7 2 3 6 1 1 2 3 6 6 8 10 10 12 13 11 9 9 6 8 6 7 10 14 20 22 12 11 11 11 13 13 13 13 12 13 12 13 14
20 20 20 20 20 19 20 19 19 20 20 21 21 20 19 18 17 17 19 19 13 6 4 4 4 6 5 4 3 6 9 9 6 4 6 6 4 3 4 4 4 6 6 5 5 6 7 4 2 4 1 3 4 2 3 5 4 5 5 5 6 9 7 6 9 9 9 5 7 8 7 10 11 15 17 10 12 12 12 13 14 13 13 12 13 13 14 14
20 21 20 20 20 19 20 19 19 20 21 22 22 21 19 18 17 17 18 15 9 5 4 3 6 5 5 6 3 4 7 7 6 6 7 7 6 4 4 4 4 4 4 5 6 6 6 3 3 3 1 1 1 3 7 7 6 6 5 5 7 7 5 6 9 11 9 4 9 10 6 10 14 12 8 9 11 11 12 13 13 14 15 14 13 14 14 13
21 21 20 20 19 19 20 19 20 20 21 22 22 21 19 17 17 17 15 10 6 4 3 3 8 6 7 4 2 3 5 6 7 8 9 9 7 4 5 6 5 4 3 4 6 6 4 3 2 3 1 2 4 6 7 7 7 7 7 8 8 8 8 6 7 10 8 4 10 13 8 9 11 10 2 9 10 11 12 15 15 16 17 16 14 13 13 13
22 21 20 19 19 19 19 19 20 20 21 22 23 21 18 17 16 14 9 5 3 4 4 2 4 5 5 2 1 2 3 5 6 6 9 10 7 4 5 5 4 3 4 5 4 4 4 3 1 2 4 6 6 5 5 7 7 6 7 7 9 11 11 7 4 6 8 6 10 14 12 13 15 14 9 7 11 12 14 17 17 19 18 17 14 13 13 13
22 21 20 19 19 19 19 18 19 19 20 22 21 20 19 15 13 9 3 3 2 4 4 2 3 4 4 3 3 1 4 4 6 6 8 8 8 7 4 2 3 5 5 4 4 5 5 3 2 4 6 7 7 6 6 8 9 10 8 7 9 10 11 11 6 5 10 10 11 13 14 17 20 18 17 15 14 15 17 17 18 20 20 17 15 15 14 14
20 20 20 19 18 19 18 17 18 18 19 20 18 16 14 9 6 4 6 6 4 4 3 3 7 4 1 3 4 3 5 6 6 6 7 7 8 9 4 2 4 5 5 4 6 7 4 3 4 6 7 9 10 11 11 13 13 14 11 8 10 11 11 15 9 5 10 9 11 15 16 18 20 18 17 18 17 18 18 17 17 19 19 15 14 15 14 14
18 19 20 19 18 18 16 15 17 17 16 17 16 11 8 5 3 3 5 6 8 9 7 4 8 7 5 2 5 6 5 7 6 5 8 9 9 8 6 4 4 5 7 7 5 4 3 5 8 9 11 12 12 13 15 16 13 11 11 9 11 13 12 16 10 5 8 6 11 16 17 19 20 19 18 17 18 19 20 20 19 19 16 13 15 15 14 13
17 18 18 17 16 17 16 13 16 15 12 12 12 7 4 2 4 3 0 6 12 11 9 8 6 9 9 1 6 8 3 5 7 6 11 12 8 7 7 8 6 6 9 9 3 2 3 7 12 15 15 11 7 8 11 14 12 10 11 10 11 11 12 16 9 5 7 5 10 14 16 19 18 18 18 18 18 19 20 21 20 20 17 14 15 15 13 10
16 16 17 15 14 16 14 13 15 14 10 7 6 5 2 3 2 0 2 7 11 7 6 7 4 8 9 3 6 6 1 6 8 8 14 13 9 8 8 9 9 8 7 7 4 3 6 10 18 18 9 3 2 4 8 12 12 10 8 7 9 10 10 13 6 5 6 4 8 12 15 17 18 19 20 20 19 19 20 21 18 17 16 15 14 12 10 8
15 15 16 15 15 16 13 13 14 11 9 5 4 3 1 2 3 4 1 6 8 6 8 9 9 11 11 6 7 8 6 11 10 9 17 16 9 8 8 10 11 9 8 10 9 7 7 9 14 11 5 5 6 4 6 9 9 8 7 7 9 9 8 9 3 3 5 7 9 13 13 15 16 17 20 23 21 18 19 19 16 14 15 16 14 9 7 10
14 15 15 15 16 15 14 15 10 6 7 3 2 1 2 4 5 4 2 6 7 7 7 7 7 11 11 4 8 13 11 10 7 7 18 18 10 6 8 11 12 11 10 14 15 13 13 8 1 2 4 7 9 5 7 8 6 9 10 10 11 10 11 11 4 3 7 10 7 9 12 12 12 13 15 14 13 12 14 14 13 12 14 15 13 8 8 10
14 13 14 13 15 15 15 13 5 4 6 1 1 0 3 5 6 3 2 5 7 4 3 4 5 7 8 5 8 10 7 7 4 3 14 14 7 7 7 7 9 12 14 17 15 14 16 7 4 3 4 6 8 7 9 8 7 9 11 14 16 14 14 14 8 7 9 8 2 3 10 9 5 7 8 5 5 8 8 9 11 12 12 11 10 9 8 9
13 13 12 12 14 15 12 6 3 7 6 1 1 0 5 6 6 2 2 5 8 4 4 5 6 7 8 7 7 6 2 5 1 4 9 7 4 4 4 5 5 9 10 11 10 8 8 3 4 6 7 7 8 10 11 10 8 8 5 7 12 13 13 12 9 5 6 7 1 3 8 10 4 6 9 5 6 9 7 7 11 11 10 9 9 7 9 9
14 12 11 12 13 13 8 4 6 8 4 0 2 1 4 5 5 2 1 7 9 5 6 3 3 5 7 4 5 7 2 2 4 3 5 3 3 3 5 7 6 5 3 2 5 5 5 5 4 6 7 7 9 10 10 11 8 5 1 3 2 6 9 8 6 6 6 9 6 4 4 12 10 7 11 11 10 10 9 10 12 12 12 13 12 7 10 11
15 14 11 12 12 11 8 7 8 5 3 2 3 3 3 4 5 2 2 7 5 5 4 1 2 3 4 2 3 4 1 1 3 2 1 1 2 2 8 12 9 7 7 6 8 3 4 6 7 9 7 8 8 4 4 12 9 1 3 3 3 1 3 3 4 6 7 9 8 7 7 9 12 5 11 14 13 12 14 15 15 15 14 14 14 8 9 11
16 15 13 12 13 12 10 9 7 5 5 4 4 3 1 3 4 1 3 7 2 4 1 3 3 2 5 4 4 3 1 1 0 1 2 2 4 2 5 9 9 7 6 10 11 3 3 1 3 8 8 7 3 4 3 6 5 1 4 4 5 2 1 2 4 5 6 9 10 8 10 7 12 4 9 10 9 11 13 13 14 16 14 11 10 8 8 9
18 18 16 14 12 11 10 9 8 8 7 5 5 3 1 3 3 4 8 7 1 2 2 3 3 5 9 7 6 5 4 1 3 3 3 3 4 3 2 2 5 6 5 8 11 6 2 3 1 4 6 2 5 6 6 3 2 4 4 2 2 3 2 3 5 3 5 11 10 12 16 11 11 2 8 7 8 11 11 10 12 13 12 11 8 7 9 9
21 20 19 18 14 11 8 5 7 8 4 4 5 2 3 3 2 8 10 2 3 1 5 4 5 8 12 10 6 6 7 4 5 7 5 3 5 6 4 2 2 4 6 7 9 9 6 5 3 2 1 3 5 4 3 4 1 2 3 2 2 4 3 3 4 3 6 10 5 12 19 17 11 4 6 6 9 13 11 8 10 11 10 10 6 7 8 9
24 23 23 22 20 15 10 5 5 6 3 3 3 2 3 3 5 12 6 4 0 6 7 6 7 8 11 10 6 6 8 6 8 9 7 6 6 7 8 7 6 4 6 6 6 6 7 8 8 4 2 5 5 2 2 2 2 4 4 4 4 4 4 4 5 4 8 10 2 9 13 14 13 11 9 9 8 11 11 9 9 10 10 10 6 7 8 8
26 25 26 26 24 20 16 12 9 7 4 2 2 3 3 5 10 11 7 4 3 3 4 4 8 9 9 8 6 6 5 4 10 11 8 7 6 8 11 11 8 5 5 4 3 4 3 3 9 7 2 7 11 8 5 4 7 8 7 7 5 5 5 6 6 6 9 9 3 5 4 7 9 9 13 17 14 13 12 10 10 10 12 10 4 5 6 6
28 27 29 29 28 26 22 18 11 7 4 2 1 4 5 10 10 5 9 11 5 2 3 3 7 10 9 8 6 8 6 5 10 10 8 8 6 7 10 13 14 7 3 3 4 4 6 6 9 11 4 11 16 13 6 3 7 10 7 6 7 6 6 7 7 8 8 7 2 5 2 5 5 2 8 14 16 14 12 10 10 11 13 7 3 4 4 5
29 30 31 29 28 28 26 21 13 9 7 4 2 5 8 12 9 2 6 9 5 3 3 2 5 8 8 7 5 7 7 5 10 10 8 9 8 8 9 11 15 10 4 5 4 4 8 9 8 7 2 12 15 9 4 4 4 7 5 6 7 6 7 8 9 8 4 7 6 5 4 6 7 7 5 8 10 14 13 11 11 13 13 8 4 4 5 5
30 30 30 29 29 30 30 24 17 14 10 5 4 6 10 12 7 3 4 4 5 6 6 2 4 6 7 6 6 8 5 3 8 7 6 10 10 11 9 7 14 16 11 7 3 3 6 5 6 5 1 6 5 2 5 3 3 5 6 7 4 1 3 7 9 5 0 7 10 6 7 8 10 13 9 11 11 14 14 13 16 15 14 12 9 7 7 7
30 26 23 27 31 33 33 28 22 17 8 5 7 8 11 11 9 8 3 1 3 7 7 6 7 7 8 6 7 11 7 3 8 7 5 7 8 11 13 8 11 18 17 11 4 4 5 4 3 4 2 2 2 2 2 2 1 5 5 4 2 2 1 3 7 4 4 9 10 9 13 12 10 9 6 14 14 14 15 15 17 15 12 11 10 8 8 8
25 18 16 26 36 36 35 32 27 17 5 3 10 12 11 10 12 11 3 2 2 7 9 9 7 8 9 8 8 12 11 6 8 7 5 6 6 10 14 9 10 17 20 15 6 3 2 3 3 2 1 2 2 2 3 3 3 1 1 1 1 2 4 5 6 6 7 9 9 13 17 14 12 8 4 12 16 15 16 17 16 14 12 9 8 9 9 7
21 9 7 20 33 35 37 35 24 11 4 5 10 11 8 9 12 9 4 4 5 7 10 11 9 8 10 10 8 9 13 10 9 8 7 7 6 8 13 9 9 16 19 15 9 5 2 4 5 1 2 3 3 4 5 6 4 0 2 2 1 2 3 4 5 5 7 8 9 13 15 12 9 7 7 11 16 16 17 16 14 14 13 9 7 10 10 7
13 3 2 11 27 34 37 31 17 7 6 6 9 9 7 7 8 7 7 8 7 7 9 11 12 11 11 12 10 7 10 10 10 9 8 8 7 8 12 10 8 11 15 15 12 7 3 4 6 0 1 3 5 7 9 10 9 6 5 6 5 3 1 3 5 6 7 7 7 8 12 13 4 1 6 8 12 15 15 13 10 10 12 10 8 10 10 7
6 3 2 14 30 37 32 18 7 7 6 5 8 11 10 8 8 9 9 8 6 6 7 8 10 11 11 11 11 9 8 8 9 9 7 9 11 8 9 13 10 8 9 9 10 8 4 5 8 4 2 7 8 9 12 13 11 10 9 9 10 9 5 4 8 7 5 6 8 8 11 15 5 4 2 5 6 8 10 9 7 6 7 7 7 10 10 8
4 3 4 21 38 38 24 8 5 6 4 6 8 7 7 8 10 11 10 8 7 6 5 7 9 11 11 12 13 10 8 7 9 10 8 10 13 10 8 13 12 10 9 6 9 11 6 2 7 8 6 7 7 3 3 4 3 4 6 8 9 9 9 9 8 6 5 6 9 10 12 16 9 1 3 4 1 4 6 6 6 5 6 7 8 10 9 9
3 2 6 27 44 36 14 4 4 4 6 5 4 7 8 7 7 8 8 9 8 7 6 7 10 12 11 11 12 10 8 8 9 11 9 7 10 10 6 11 12 9 8 5 6 7 2 2 5 8 6 5 3 2 2 3 0 3 6 8 9 10 11 10 6 3 3 6 9 10 11 14 11 5 5 8 8 9 8 8 9 9 7 7 9 9 7 8
2 0 3 23 43 33 12 6 6 8 9 5 5 11 11 8 8 9 9 9 8 6 9 11 10 11 10 7 7 8 8 7 9 11 9 6 6 5 5 10 10 8 8 4 2 4 3 3 6 6 6 7 5 4 2 0 3 6 8 10 11 12 12 8 5 3 5 13 17 12 9 12 10 4 7 12 13 10 10 11 12 11 8 7 8 7 7 7
2 1 1 12 26 18 6 6 7 8 11 10 11 13 11 8 9 13 14 13 10 9 10 9 6 7 7 3 4 7 8 8 7 6 4 4 3 3 3 8 8 9 8 3 3 3 5 5 6 7 8 8 9 11 5 1 4 6 8 11 12 15 15 10 7 6 10 18 19 13 12 15 14 11 14 19 15 10 11 11 8 7 7 7 6 6 6 7
3 3 2 4 10 9 6 4 5 7 10 12 11 10 13 12 9 12 15 13 12 13 13 8 3 5 7 7 9 10 10 12 9 5 5 6 5 2 3 4 6 7 5 9 6 2 2 3 9 13 14 12 12 16 11 4 5 7 9 13 12 14 17 13 8 11 14 14 13 15 19 19 17 18 23 26 21 17 19 16 9 7 7 7 7 7 7 7
3 4 4 4 4 7 7 6 5 6 8 10 8 7 14 17 11 10 11 10 12 13 12 9 7 9 10 11 11 11 11 13 11 9 11 11 10 8 3 1 4 5 5 5 3 1 0 5 11 16 19 17 17 21 21 19 14 11 12 14 14 14 15 13 15 18 15 10 11 18 23 20 15 17 24 27 24 21 23 22 17 12 9 8 8 8 9 9
4 3 3 4 5 6 8 11 11 11 12 11 7 8 15 17 13 11 10 10 11 11 8 7 12 18 18 14 11 9 9 9 9 9 10 10 12 12 6 4 4 1 1 2 2 1 2 6 9 12 15 15 16 20 23 25 23 17 14 15 16 16 16 20 25 20 12 13 17 18 21 20 15 17 24 26 25 24 26 25 22 17 13 7 5 7 10 11
4 4 1 3 5 5 8 14 16 16 18 14 9 11 15 17 18 15 10 8 9 11 12 11 14 19 22 20 16 11 9 9 9 10 11 12 14 12 8 7 5 2 4 3 2 3 3 5 8 12 14 15 17 19 22 24 22 20 18 17 14 15 20 26 24 15 14 23 25 21 23 23 17 18 25 27 27 27 25 25 22 19 18 12 6 9 16 16
4 4 3 2 5 4 5 9 9 10 14 13 11 11 13 18 20 17 12 11 10 10 13 17 20 20 21 22 19 16 15 17 17 16 15 15 13 9 7 8 7 4 5 4 3 3 4 9 11 11 12 15 18 22 24 22 21 21 21 18 17 21 26 25 18 12 16 22 23 22 23 20 16 20 26 29 29 26 25 26 23 20 22 19 13 15 20 19
8 9 8 5 5 5 5 6 6 8 9 10 11 12 14 19 21 18 15 16 17 14 13 19 23 20 18 19 19 19 20 22 24 23 20 18 14 11 9 9 10 8 4 4 4 4 5 8 9 9 10 12 16 21 21 19 20 22 20 20 24 28 26 21 17 18 19 19 20 19 16 13 15 21 24 26 26 26 29 27 21 21 24 20 15 16 18 17
11 11 8 6 5 4 6 6 7 9 8 8 11 12 15 18 19 18 15 12 17 20 18 19 20 15 14 18 22 23 24 24 25 25 23 19 13 9 6 6 11 11 7 6 6 5 5 6 6 8 9 10 16 21 18 14 14 14 17 26 32 29 24 22 24 26 26 21 17 15 12 12 16 19 20 23 26 27 26 20 16 20 22 17 14 16 15 14
Wind_Direction
15 14 13 14 14 15 14 13 14 15 16 16 17 16 17 16 12 7 4 3 4 3 352 339 340 327 281 260 255 260 271 286 293 257 233 242 238 236 242 239 245 248 253 271 233 210 202 211 212 198 204 193 213 198 160 196 214 226 230 246 255 261 271 196 259 274 311 300 163 164 190 222 218 173 176 162 234 241 238 230 228 219 223 211 120 123 149 149
7 6 7 7 7 8 8 8 7 7 9 10 11 11 12 12 10 6 2 359 357 357 353 340 330 325 304 269 258 260 274 279 273 264 247 246 245 234 230 229 238 238 244 254 219 218 219 227 206 193 216 208 187 177 178 182 193 231 248 254 257 274 309 33 292 283 283 286 257 176 203 226 236 178 158 206 230 222 232 234 222 225 225 193 152 156 158 158
357 358 358 359 360 1 1 2 1 1 1 2 4 5 5 6 6 3 360 358 354 351 349 341 327 323 312 282 266 257 272 279 271 264 240 236 235 223 214 219 231 228 231 246 246 241 249 272 240 204 222 225 190 181 201 178 192 233 245 255 265 302 310 270 264 261 271 284 262 244 208 221 240 189 152 217 246 231 231 232 219 224 225 207 175 168 169 172
348 348 349 350 351 351 353 354 354 354 353 354 356 357 359 359 0 0 358 355 352 349 345 339 329 323 313 298 274 243 266 279 270 229 207 215 216 212 206 213 224 222 226 240 247 250 257 269 242 216 228 235 197 192 218 184 187 219 215 254 296 15 297 267 215 259 273 275 266 259 216 233 238 202 192 226 250 245 240 235 229 224 227 215 180 173 180 183
341 340 342 342 341 343 344 345 346 347 347 348 348 350 352 352 354 356 355 352 349 347 343 336 327 324 317 305 255 208 246 268 279 153 190 192 194 202 203 213 218 215 215 220 227 233 240 233 217 219 234 238 203 205 225 187 173 251 233 254 286 288 277 272 123 276 258 253 263 246 237 240 210 207 219 229 238 247 252 246 237 228 239 223 174 175 184 187
334 335 336 336 335 335 336 338 339 339 341 342 342 344 345 347 348 349 351 349 345 344 341 333 325 326 318 302 203 188 231 253 59 151 187 178 184 194 199 210 210 210 203 206 218 223 230 216 208 217 231 244 223 221 219 166 178 255 248 248 254 251 257 256 123 144 191 236 239 237 251 231 216 238 230 227 235 244 252 45 237 227 250 191 163 173 184 190
329 330 330 331 330 330 331 332 332 333 334 336 337 339 342 344 342 342 346 345 342 341 337 327 319 320 313 307 150 196 233 257 116 169 183 181 189 191 198 203 204 207 197 211 224 225 235 229 226 231 243 254 243 233 200 156 198 242 264 258 243 241 245 252 174 170 209 235 238 252 280 237 236 251 245 236 237 243 247 229 189 184 179 167 166 177 186 193
325 326 326 326 325 326 327 327 328 328 329 330 332 334 338 340 339 338 339 340 339 335 330 318 307 312 238 161 229 235 236 246 212 193 197 199 198 195 200 200 207 201 202 231 243 249 263 254 249 261 256 261 274 247 186 201 222 225 255 269 239 230 243 247 223 213 225 234 241 248 251 245 244 260 265 251 245 243 246 241 214 189 191 192 189 189 191 198
320 322 322 322 322 323 323 324 324 324 325 327 328 330 334 337 337 335 334 335 334 331 325 306 291 268 186 185 256 262 245 218 218 218 206 204 205 203 198 196 212 202 213 239 252 257 270 271 265 293 279 289 297 270 192 235 241 226 260 282 254 248 249 241 233 233 231 227 221 226 243 248 246 270 268 254 249 245 240 241 231 209 210 211 206 201 199 201
317 318 319 319 319 319 320 321 320 320 322 322 325 328 330 335 333 331 332 331 331 330 318 287 266 221 189 197 241 260 279 201 217 218 207 206 203 199 203 208 210 210 226 230 236 256 278 300 335 47 291 284 263 263 198 240 300 322 287 288 268 261 259 241 238 240 233 231 219 222 247 251 217 192 258 252 244 238 228 233 231 218 220 219 216 213 207 206
316 316 317 318 318 319 320 320 318 318 317 318 322 324 328 333 331 330 330 329 331 328 310 276 244 214 197 218 242 253 279 194 210 207 209 206 192 191 210 212 204 209 233 240 231 265 299 304 107 144 283 298 258 244 222 267 324 320 302 291 271 260 253 235 236 235 219 226 214 219 255 254 209 201 248 245 155 196 208 219 220 215 222 221 220 217 209 212
317 317 318 319 320 320 319 320 318 315 315 315 317 320 325 331 331 330 329 328 332 326 301 263 227 202 205 238 244 244 240 215 217 216 218 213 202 205 212 215 211 205 229 256 226 192 246 177 174 240 279 346 285 263 251 305 308 292 293 286 277 268 255 235 228 216 205 208 178 197 264 250 217 220 246 240 178 182 201 215 216 214 222 221 220 216 211 213
318 319 321 320 321 321 320 322 319 315 315 312 314 317 320 327 330 329 328 327 332 325 286 239 208 192 220 257 233 226 236 231 226 221 222 217 209 214 212 213 211 205 221 247 218 186 189 152 215 260 287 272 273 328 320 239 261 281 265 266 280 280 264 230 207 185 194 192 149 181 266 259 223 220 240 234 175 187 209 218 222 223 224 220 219 215 213 210
317 319 320 320 322 322 321 322 319 315 313 311 311 313 317 324 325 326 327 325 327 315 260 224 198 187 227 262 224 225 234 232 227 213 215 203 184 198 187 186 197 199 209 211 194 183 175 152 222 255 218 263 284 26 262 232 214 256 253 246 255 267 268 188 168 167 184 174 152 189 252 272 260 235 232 204 169 192 217 223 224 229 227 219 216 213 213 208
315 317 320 319 320 320 320 322 319 314 311 309 308 310 315 319 320 323 320 315 315 287 251 215 194 193 257 255 226 237 229 223 217 210 210 185 174 191 165 159 157 157 168 172 167 155 152 160 214 241 174 134 275 260 263 254 223 227 244 256 239 243 251 189 175 186 197 167 172 196 241 259 269 273 234 171 175 203 228 240 233 234 234 225 215 209 212 209
313 315 317 318 318 317 319 321 318 313 311 306 305 307 310 315 317 315 309 303 293 245 200 198 191 207 282 265 170 235 220 212 209 213 214 190 189 199 154 143 127 116 121 134 139 134 144 193 226 281 264 205 237 247 266 271 251 224 224 259 259 251 262 231 179 197 210 161 181 208 250 261 262 284 235 157 188 215 239 254 249 249 246 237 227 212 209 207
308 312 316 316 315 315 318 320 317 314 311 306 306 306 307 314 309 304 299 277 261 200 184 220 181 203 264 238 212 247 180 194 200 204 210 199 197 182 153 155 142 120 120 126 140 150 177 207 194 258 232 228 241 242 259 264 265 248 220 245 263 261 268 258 202 202 202 192 207 216 235 255 261 271 270 222 211 221 243 258 260 261 255 247 242 227 213 204
306 312 315 314 316 317 318 321 317 315 313 309 309 308 309 309 297 288 251 194 146 148 196 229 176 216 236 190 226 201 120 171 188 187 197 198 192 177 177 197 159 153 157 168 193 188 198 202 203 256 242 229 225 218 231 243 264 282 267 261 273 269 263 263 264 171 178 204 230 229 234 249 257 263 268 262 249 241 248 257 263 264 261 257 250 240 226 207
308 313 314 315 315 313 318 323 319 320 319 314 316 316 309 300 283 246 190 181 170 199 246 183 188 243 301 162 173 133 129 153 165 178 182 181 176 175 198 207 165 191 207 206 192 187 194 199 217 250 242 225 218 213 222 242 263 285 288 285 284 282 269 269 277 163 180 215 231 237 246 254 260 262 263 265 265 262 263 264 263 263 264 263 253 248 236 216
307 311 315 317 312 310 320 326 321 326 327 325 335 331 298 267 262 233 187 200 223 247 283 230 210 260 284 181 143 147 155 164 174 181 172 166 160 173 199 191 184 220 230 227 198 173 192 226 232 238 240 239 236 227 231 249 269 284 284 280 273 274 271 272 276 177 182 230 245 248 255 258 262 265 264 266 267 269 270 266 263 264 266 264 256 252 241 227
302 308 320 324 317 316 323 327 325 329 331 338 347 329 291 293 284 285 250 244 238 239 263 255 250 276 271 251 140 159 167 202 200 175 170 170 158 177 190 181 202 224 223 224 196 125 199 228 238 242 250 259 265 257 249 256 267 268 266 273 271 265 266 272 273 161 164 219 259 263 266 264 262 264 264 263 262 263 263 261 263 267 269 267 260 254 243 227
297 305 322 328 321 320 326 328 327 329 333 344 338 307 348 22 285 234 20 274 250 221 241 255 263 270 257 221 175 170 216 242 218 176 170 173 176 197 185 177 215 225 193 190 180 194 217 235 246 248 252 263 277 277 262 258 259 258 254 259 264 264 271 274 259 145 159 215 267 275 276 273 268 264 261 255 253 253 253 258 264 268 270 267 262 258 237 194
294 301 316 326 323 321 327 330 328 333 341 349 338 320 49 89 119 122 160 276 269 219 216 229 228 241 238 219 191 181 216 236 230 193 170 170 184 207 202 193 221 228 184 193 211 215 222 239 252 248 221 233 245 231 237 250 247 239 238 244 253 259 270 271 241 144 202 224 265 287 284 275 267 256 250 248 246 245 251 258 260 259 262 262 264 266 227 185
292 292 304 322 324 321 328 329 327 336 337 359 23 350 137 135 119 116 218 271 267 219 205 218 224 236 231 206 175 188 217 228 228 196 170 173 176 179 215 214 221 233 213 216 220 225 239 242 233 168 177 233 242 211 213 234 240 229 226 236 249 254 257 264 295 346 270 245 251 292 287 270 259 247 239 238 235 238 247 252 254 252 252 257 262 255 215 188
291 288 294 310 318 324 328 322 324 336 328 32 72 31 143 143 129 109 306 269 251 215 183 203 203 225 206 151 160 182 224 226 214 162 169 185 185 159 203 216 219 235 227 226 227 236 247 231 117 169 188 209 227 228 218 217 246 241 221 229 244 257 265 273 308 346 304 274 190 339 304 277 230 229 231 196 190 219 229 235 245 250 246 245 247 232 199 183
286 291 295 294 308 328 330 313 330 329 317 204 274 175 149 151 143 128 321 273 252 193 140 185 184 189 172 149 157 151 239 238 170 104 167 205 240 186 215 194 203 246 235 229 235 243 244 177 124 221 218 204 223 248 231 207 239 251 229 240 248 259 270 277 296 306 284 283 264 55 312 286 242 222 235 223 211 207 194 216 235 245 245 238 235 210 179 180
277 285 293 285 300 327 335 327 324 315 302 276 314 240 184 176 182 221 287 278 262 167 135 193 185 168 156 143 164 156 207 233 98 108 172 221 253 229 241 201 190 238 209 206 248 230 193 171 174 212 219 218 225 249 227 198 224 247 34 360 261 251 262 263 274 261 262 290 280 176 237 276 275 233 224 231 235 220 205 221 233 239 241 241 243 210 170 182
270 273 282 280 289 309 313 307 310 303 285 326 333 278 239 197 216 247 268 272 268 118 124 176 114 119 114 93 204 184 316 162 140 126 83 320 243 204 231 226 229 225 178 189 233 225 146 182 194 183 196 222 222 259 204 189 214 259 68 39 65 127 251 233 249 260 272 291 275 200 181 264 281 234 196 210 223 227 225 230 240 246 243 239 242 220 174 180
263 263 267 268 276 291 295 287 282 272 263 279 309 299 241 202 230 251 251 255 220 106 111 123 130 151 122 130 216 226 4 41 120 91 113 209 230 235 246 243 257 251 200 213 239 290 68 170 210 181 196 224 198 31 14 200 209 131 110 86 76 98 141 183 245 271 281 274 261 211 169 233 284 253 169 192 208 220 228 232 237 245 246 238 230 206 172 174
256 256 255 256 263 279 288 274 254 260 266 258 274 299 202 210 233 231 233 244 282 80 90 125 163 156 143 157 201 211 215 213 89 135 171 178 193 226 276 266 268 265 241 242 260 275 131 97 14 213 214 211 99 62 17 14 108 130 140 117 123 201 191 214 241 264 277 265 248 202 181 206 274 262 146 178 199 200 211 224 229 236 244 239 212 181 172 175
252 251 248 246 246 253 272 269 243 253 267 252 254 253 229 223 219 236 232 253 335 156 137 171 169 147 165 184 193 182 196 210 147 159 187 163 173 203 212 191 202 246 252 249 256 248 208 173 190 211 162 114 106 92 46 48 94 173 173 216 245 232 209 219 222 171 244 264 232 182 186 199 235 230 155 189 200 192 193 212 236 244 247 240 199 169 175 176
248 247 245 243 241 237 244 260 258 255 243 235 237 214 227 218 222 237 227 73 291 193 159 175 175 171 189 201 212 177 180 203 180 181 194 175 184 198 202 200 173 199 244 228 227 231 218 205 190 152 106 177 170 152 110 105 182 208 193 203 248 257 243 236 226 194 232 257 196 164 190 207 234 248 242 250 233 202 199 211 242 254 251 245 207 167 172 172
248 244 241 240 237 230 232 247 260 258 232 212 250 226 210 231 235 226 197 168 207 174 138 153 167 176 182 195 212 179 178 204 175 185 200 183 204 211 210 218 205 228 258 214 217 221 225 217 173 164 186 190 186 195 208 189 184 193 189 188 209 238 260 259 246 239 245 253 205 142 185 237 258 258 236 241 239 217 211 216 231 246 247 246 210 147 157 165
253 246 239 237 234 229 229 237 246 242 215 152 230 217 199 234 240 196 188 205 203 122 117 116 152 173 188 206 194 167 197 216 167 177 194 181 210 222 214 220 215 230 272 231 260 225 245 272 173 171 172 169 188 210 215 137 173 194 193 196 214 226 246 258 255 257 272 288 260 146 173 254 280 295 198 221 231 218 216 222 221 235 240 233 125 121 149 163
253 247 240 231 226 225 225 228 230 216 195 155 176 210 210 233 239 205 214 209 178 148 134 102 156 181 210 222 200 189 218 217 168 173 194 192 207 213 206 210 204 201 190 216 247 196 242 263 164 145 126 161 182 210 171 115 178 194 181 203 230 232 227 247 269 274 305 316 281 200 223 258 274 284 214 194 220 210 209 223 227 237 237 219 179 179 179 175
245 239 234 222 215 217 217 218 212 195 187 168 168 210 226 238 244 246 230 194 184 163 134 158 195 199 227 215 203 213 215 204 180 181 205 209 223 225 213 204 192 190 188 194 216 194 239 267 135 119 331 163 175 219 167 183 202 160 175 203 214 300 232 247 271 285 184 277 271 244 257 266 274 276 227 181 204 207 202 218 230 236 235 224 218 211 200 193
234 227 221 216 213 212 212 209 195 185 189 183 185 211 230 238 250 259 252 160 202 157 149 216 209 195 223 217 207 199 177 176 189 190 209 199 222 223 209 213 190 189 200 201 217 235 241 277 168 167 231 168 359 339 163 270 249 142 187 205 113 51 324 251 266 275 247 261 271 266 271 273 275 281 200 175 198 204 202 219 230 232 230 227 226 222 219 202
228 216 219 221 213 208 207 198 183 174 170 189 213 229 234 233 246 253 233 120 170 174 194 232 211 190 214 231 222 182 166 184 181 184 218 201 215 198 185 204 192 190 207 207 221 261 220 259 231 173 279 122 104 247 193 228 237 146 287 273 91 217 207 202 230 251 254 258 269 273 276 272 259 266 217 186 195 199 206 218 225 223 222 224 223 229 230 203
228 210 239 226 211 204 197 185 170 157 155 189 217 234 244 246 249 256 243 205 210 206 220 237 232 220 222 234 238 173 168 190 174 176 212 204 213 181 166 187 195 197 205 194 203 239 184 227 243 24 5 128 142 223 203 184 191 164 309 256 205 242 222 210 214 228 243 248 265 278 281 276 256 254 247 209 193 198 210 216 219 220 221 219 215 229 234 210
222 221 287 202 195 192 182 169 156 156 181 194 217 235 262 273 265 274 269 248 240 235 242 247 242 241 236 234 242 210 190 200 189 195 210 195 210 197 171 180 192 200 202 191 202 223 165 215 236 6 32 195 195 207 196 188 181 177 220 217 195 197 253 287 245 232 238 243 254 265 271 273 264 172 261 230 192 201 213 215 215 213 218 219 217 229 236 226
198 255 232 171 176 174 163 156 162 174 183 217 228 238 257 271 274 279 276 273 272 265 272 273 256 253 253 244 243 231 213 213 208 213 217 203 220 224 177 183 189 169 173 191 209 213 184 205 222 211 189 217 221 204 200 202 189 181 195 199 196 189 183 237 241 226 217 232 243 245 259 263 251 88 299 237 189 216 228 216 208 207 213 218 223 231 234 230
208 277 170 165 169 163 154 168 193 169 196 220 220 243 259 260 268 272 271 274 273 267 281 287 265 258 257 252 251 238 215 215 215 217 224 217 225 229 176 180 190 160 151 189 209 205 192 169 221 231 226 226 230 208 219 239 212 209 211 202 201 191 187 214 228 223 208 216 236 243 252 260 257 205 271 254 253 293 265 218 210 217 211 212 225 231 231 231
219 278 153 167 169 162 157 206 186 184 225 226 238 257 253 251 264 268 261 253 248 246 251 256 255 254 252 252 255 246 223 218 215 220 234 233 233 239 201 189 198 177 172 203 204 193 156 99 222 246 270 275 267 100 42 6 267 236 234 216 209 202 205 219 231 245 233 216 228 238 244 259 265 239 237 269 282 274 256 236 238 240 223 217 227 225 221 227
217 302 141 177 176 170 170 200 193 211 227 239 255 244 242 250 251 250 250 242 232 238 246 246 248 249 247 251 256 247 240 238 230 232 241 237 238 266 259 230 218 192 195 211 175 175 177 183 206 235 259 268 266 236 229 302 214 229 233 221 220 219 218 230 251 263 251 238 238 244 248 254 262 236 232 262 265 245 234 236 243 247 234 216 220 218 215 217
254 232 86 189 191 190 199 203 200 210 216 227 235 234 238 244 238 237 241 242 235 235 246 251 260 258 251 259 262 247 249 255 253 255 265 264 277 355 324 270 243 213 222 324 9 196 196 185 190 218 235 234 241 245 247 115 188 224 239 226 220 221 219 226 241 231 239 241 238 243 254 256 266 278 274 274 268 250 249 246 232 232 231 217 214 212 208 208
262 234 148 182 209 227 251 237 218 204 205 218 227 230 234 237 241 236 234 241 238 233 243 254 278 276 255 245 253 249 246 253 263 288 295 280 286 344 14 323 281 254 287 355 4 204 197 208 207 224 238 235 241 254 268 280 207 197 224 227 218 218 220 223 233 231 238 246 241 242 251 257 267 275 278 279 276 274 276 273 255 229 222 217 221 223 218 218
261 243 183 170 213 231 244 253 239 214 205 207 203 209 223 229 237 231 219 226 229 226 239 248 238 242 240 233 242 246 239 244 251 253 259 264 269 276 299 339 288 295 330 340 320 158 216 248 227 232 241 241 248 258 265 270 257 219 213 222 218 218 218 217 229 235 240 256 254 246 251 259 264 266 270 274 276 279 279 277 275 268 250 227 220 223 226 228
249 261 189 183 206 213 224 231 232 234 226 211 201 215 225 226 226 222 214 220 226 216 218 235 226 227 231 227 230 234 227 238 244 234 242 255 254 256 257 225 230 255 64 291 287 141 204 243 241 249 257 257 262 265 265 268 268 254 238 235 228 220 215 222 233 234 231 246 252 253 258 262 262 262 266 272 276 277 277 277 280 281 274 249 198 209 236 236
250 279 277 215 221 212 216 222 226 231 229 222 223 225 229 232 229 225 214 209 225 214 210 229 227 222 226 225 223 225 210 216 236 225 219 230 233 237 242 238 235 161 143 197 214 162 201 246 250 258 267 266 264 265 263 264 270 270 264 263 262 251 238 237 241 234 224 240 250 255 259 262 264 266 268 272 273 274 277 279 280 282 278 266 248 260 269 263
258 279 295 268 262 265 251 238 233 237 231 227 232 227 227 235 234 231 219 205 216 209 203 225 233 226 226 223 220 225 218 216 229 225 213 217 220 219 223 226 225 192 161 182 204 181 211 239 245 252 262 257 251 253 254 256 262 267 269 277 282 273 261 255 256 245 233 242 250 252 257 263 265 264 264 266 268 272 274 274 276 280 278 275 277 276 273 271
307 315 315 296 277 264 255 245 229 238 235 224 229 231 232 235 234 238 236 219 221 218 200 216 229 229 231 228 225 229 225 222 228 229 225 226 221 215 217 207 204 204 182 183 207 195 208 232 236 238 247 245 240 243 245 249 259 265 270 271 261 257 260 262 260 254 247 249 254 255 254 253 251 255 259 262 266 268 268 269 273 274 273 277 280 271 265 267
323 328 324 303 281 256 254 255 232 233 235 221 224 227 231 238 237 242 248 235 230 235 226 222 227 229 232 231 229 229 227 224 228 231 235 241 239 231 228 206 198 199 192 200 210 193 196 216 213 217 236 240 236 241 245 249 259 258 249 247 245 247 255 259 257 256 252 251 254 252 244 241 247 255 261 264 265 262 260 262 267 268 271 277 274 266 266 266
Height
832 831 830 830 829 828 828 827 826 825 824 823 822 821 820 819 818 817 816 815 814 813 812 811 810 810 809 809 809 809 809 808 808 806 805 802 801 802 802 802 802 802 802 802 803 803 803 803 803 803 804 804 803 802 804 803 803 806 808 810 808 801 796 793 793 793 794 793 793 795 795 796 797 798 799 800 801 800 799 798 797 797 796 798 800 802 803 804
832 831 830 830 829 828 828 827 826 825 824 823 822 821 820 819 818 817 816 815 814 812 812 810 810 809 808 809 808 808 808 808 807 804 802 800 801 801 801 801 802 802 802 802 802 802 801 800 800 801 803 803 802 802 804 803 804 806 804 807 803 794 790 789 789 789 791 792 791 793 794 794 794 794 797 800 799 798 799 796 796 797 796 797 800 802 803 804
832 831 830 830 829 828 827 826 826 825 824 823 822 821 820 819 818 817 815 814 813 812 811 810 809 808 808 808 807 808 808 807 806 801 797 798 800 800 800 801 801 801 801 801 801 801 801 799 799 800 802 802 800 802 804 803 804 802 803 807 798 788 788 786 787 789 789 790 792 792 792 794 792 790 796 799 795 793 794 792 793 795 792 792 796 799 801 803
832 831 830 829 829 828 827 826 825 824 823 823 822 821 820 818 817 816 815 814 813 812 810 809 809 808 808 807 807 808 807 808 804 795 794 796 798 799 800 800 800 801 800 801 801 801 800 799 799 798 802 803 799 801 803 802 802 800 802 802 792 788 791 787 787 789 789 791 792 791 794 795 790 790 794 795 795 791 786 783 784 786 785 785 791 795 797 799
832 831 830 829 828 827 826 826 825 824 823 822 821 820 819 818 817 816 815 814 812 811 810 809 808 808 807 806 807 806 809 813 801 792 794 795 796 798 799 800 800 800 800 801 800 801 800 799 799 800 803 802 800 802 800 797 800 802 797 791 788 790 792 787 787 791 791 793 793 793 795 793 789 791 791 792 793 785 777 776 774 776 777 777 784 790 793 796
832 830 830 829 828 827 826 825 824 823 823 822 821 820 819 818 816 815 814 813 812 811 809 809 808 807 807 806 807 806 810 810 797 793 795 794 796 798 798 799 799 800 800 801 800 801 800 798 801 803 803 800 800 801 797 794 799 802 793 786 787 789 790 788 788 793 793 794 794 793 791 789 791 791 787 787 785 775 771 772 772 773 773 774 780 786 789 791
831 830 830 828 827 826 825 825 823 823 822 821 820 819 819 817 816 815 813 813 811 810 809 808 807 807 807 807 807 807 808 802 793 794 796 795 797 797 798 799 799 800 800 801 800 800 798 799 801 801 802 800 798 796 795 796 799 802 795 787 788 789 789 787 789 793 793 793 791 790 790 790 792 788 782 780 775 770 770 770 771 773 773 775 778 782 784 785
831 830 829 828 827 826 825 824 823 822 821 820 820 819 818 817 816 814 813 812 810 809 809 807 807 807 807 808 808 807 805 798 793 795 795 796 797 796 798 798 798 800 799 800 799 798 798 799 799 799 802 800 796 795 796 798 798 799 795 788 788 790 788 786 789 792 792 792 790 791 792 789 786 784 781 775 770 769 768 768 770 772 773 775 776 778 780 781
830 829 828 828 826 825 824 823 822 821 820 819 819 818 817 816 815 813 812 811 810 809 807 807 807 806 807 807 808 808 802 795 794 795 795 796 796 797 798 798 799 799 799 800 799 799 799 799 798 798 802 799 796 796 798 801 798 794 792 789 789 790 786 786 788 789 789 789 790 792 791 786 783 784 779 768 765 765 765 767 767 770 773 772 773 774 776 777
828 828 827 826 825 825 824 823 822 820 819 818 817 817 816 815 813 812 811 810 809 808 806 806 806 806 807 806 808 809 798 793 795 795 795 796 796 797 797 798 798 799 799 799 798 798 798 798 797 797 801 799 797 798 798 801 797 793 793 791 790 788 784 785 786 785 786 787 788 790 789 783 782 788 778 761 759 760 762 765 764 767 770 770 771 770 771 773
827 826 826 825 824 824 823 822 821 820 818 817 816 815 814 814 812 811 810 809 808 806 805 805 805 806 806 805 808 805 795 794 795 794 796 796 796 797 797 797 798 799 799 797 798 798 797 797 796 798 801 799 798 798 797 797 795 794 795 793 788 785 782 783 784 783 784 785 784 786 788 782 784 788 772 757 759 759 760 763 762 765 766 766 767 767 768 768
825 824 824 823 822 822 821 821 819 818 817 816 815 813 813 812 811 810 808 807 806 805 805 804 805 805 805 805 803 798 794 795 795 795 796 795 796 796 796 797 797 798 798 797 797 797 797 797 797 799 799 798 798 798 798 795 796 796 797 796 787 781 781 778 778 780 782 783 780 785 789 781 779 777 759 753 759 759 760 761 761 762 762 762 762 763 764 763
824 823 822 821 821 820 819 819 818 817 815 814 813 812 812 810 810 809 807 806 805 804 804 804 804 804 806 804 796 793 794 794 794 795 796 796 796 796 796 796 796 797 797 796 796 796 797 797 797 798 797 798 798 798 798 796 798 797 795 796 791 786 778 768 771 778 781 781 778 785 789 772 763 762 751 749 755 758 761 760 759 759 758 758 758 758 758 759
823 822 821 820 819 818 817 817 816 814 813 812 811 811 810 809 808 807 806 805 804 804 804 804 804 805 806 800 792 792 793 793 794 794 795 796 796 796 796 796 796 796 796 796 796 796 796 796 798 797 797 799 797 798 798 796 798 796 794 795 794 792 779 765 771 778 781 781 777 785 789 768 752 751 746 746 751 756 758 756 756 754 753 754 753 753 753 754
823 821 820 819 818 817 815 815 814 812 811 810 809 809 808 808 806 805 805 804 803 804 803 803 803 804 803 796 791 792 792 793 794 793 794 795 796 796 796 796 796 795 796 796 796 796 797 797 798 798 798 799 799 801 798 793 791 790 797 795 786 788 779 768 772 774 774 779 779 783 784 767 752 745 741 744 748 752 753 751 750 749 747 747 747 747 748 748
822 821 819 818 817 816 814 814 812 811 809 808 807 806 806 806 804 804 803 802 803 802 802 803 802 803 803 796 791 792 791 792 792 792 793 794 795 795 796 796 796 796 796 796 796 797 797 797 799 799 799 799 799 800 798 796 790 785 794 794 783 781 776 767 771 770 768 775 779 779 774 762 751 744 741 744 747 749 750 747 745 744 741 740 740 741 742 743
821 820 818 817 816 814 813 812 811 809 807 806 805 804 804 804 802 801 801 801 802 801 802 802 800 802 800 793 792 791 790 791 791 792 793 794 795 795 796 796 796 797 796 797 797 797 797 797 800 799 797 797 795 796 805 807 795 782 784 788 780 775 773 769 770 770 770 774 775 775 772 762 751 745 744 745 745 747 747 744 742 739 734 733 733 734 735 736
820 819 817 816 815 813 812 811 809 808 806 804 803 802 802 801 800 799 800 800 801 802 803 801 802 806 799 790 790 789 788 790 791 792 793 793 794 795 796 796 796 797 797 798 797 796 797 796 799 799 795 795 793 796 807 803 788 780 779 782 778 771 771 767 764 767 771 774 773 771 769 761 751 746 745 742 742 743 742 739 737 732 728 728 728 728 728 730
819 818 817 815 814 813 811 810 808 806 804 802 801 801 799 798 798 798 798 799 800 800 800 798 797 800 795 787 786 787 787 789 790 791 792 793 794 795 796 796 796 796 798 799 796 795 796 797 801 801 794 789 787 788 791 784 776 777 777 780 781 776 772 762 758 764 767 772 773 768 763 755 749 746 743 739 737 737 735 733 731 725 722 723 724 722 722 724
819 817 816 815 813 812 810 809 807 805 804 801 800 800 798 798 798 796 796 797 794 790 790 789 788 787 786 784 785 787 787 788 789 790 791 792 793 795 795 796 797 798 798 797 796 794 796 801 799 792 783 777 776 775 775 773 772 776 779 782 782 780 774 759 757 763 765 769 766 758 757 751 746 743 739 737 734 733 731 729 725 720 718 719 719 718 718 721
818 817 815 814 813 811 810 809 807 805 804 802 802 800 798 799 801 799 797 793 786 784 784 784 784 784 782 782 784 785 786 787 787 788 790 790 792 794 793 794 798 799 794 792 795 796 798 801 789 776 771 770 771 770 770 772 774 778 781 783 781 777 770 756 756 764 766 772 765 753 754 749 743 741 736 734 734 731 727 723 720 715 715 714 712 714 715 718
818 817 815 815 812 811 810 808 807 805 804 803 803 801 800 802 803 803 803 795 784 782 784 783 784 783 780 781 783 783 786 786 785 785 787 789 791 792 788 790 795 792 789 792 797 800 801 795 778 767 769 771 773 774 775 776 777 781 782 786 784 773 764 755 756 766 770 773 765 754 754 746 738 737 731 729 728 724 719 716 715 713 713 711 708 709 711 717
817 816 816 814 812 811 810 808 807 805 804 804 803 802 802 803 803 804 806 800 788 781 781 781 781 780 778 779 780 783 785 783 781 781 782 786 788 788 786 787 788 785 788 791 792 798 797 783 768 766 769 772 775 778 781 781 781 782 782 785 780 768 767 764 761 769 771 768 763 759 757 745 734 730 724 720 718 716 713 711 711 711 711 708 705 707 709 714
816 816 815 813 813 811 809 808 807 805 805 803 804 803 803 804 804 804 804 797 786 778 776 776 776 775 774 775 776 779 781 777 775 776 778 780 782 785 783 781 783 783 784 783 782 786 780 770 768 770 772 773 777 781 784 784 781 779 779 780 773 764 765 762 760 767 765 759 763 765 757 735 721 720 716 711 712 712 712 711 711 709 706 705 704 705 708 710
816 816 814 813 813 810 809 808 806 807 805 803 804 803 803 804 803 805 804 795 784 776 775 774 773 771 768 772 774 774 776 774 771 773 775 775 777 780 779 777 779 779 776 775 778 779 770 767 771 774 777 777 778 780 780 781 779 775 771 769 765 762 762 760 763 772 771 764 763 767 760 729 707 710 709 708 713 713 712 713 711 706 701 702 703 703 706 709
816 815 814 814 813 810 809 807 807 808 805 805 805 803 804 804 803 805 803 797 783 772 772 771 768 767 765 769 773 773 777 774 770 773 774 776 774 775 777 775 773 775 770 769 774 772 767 770 774 775 778 780 782 779 772 775 779 775 769 765 764 764 767 769 772 779 779 768 759 767 772 742 712 711 708 705 711 709 710 712 707 702 698 696 697 698 703 707
815 815 814 814 813 812 810 807 808 807 805 807 805 805 806 803 805 805 802 802 779 756 763 768 764 763 764 768 769 771 777 773 771 775 775 777 775 774 777 773 772 775 770 773 779 769 763 773 778 777 779 781 784 777 765 769 776 775 774 774 770 770 774 775 778 782 775 766 760 762 773 758 724 713 707 703 709 707 705 706 701 697 695 691 690 692 697 702
814 815 814 814 813 813 811 809 809 807 807 807 805 807 805 804 808 802 806 812 775 744 754 763 763 763 764 770 769 768 774 770 770 776 777 778 778 776 777 771 767 770 769 775 779 765 760 772 776 777 783 780 775 770 763 765 770 775 780 778 773 775 777 776 779 779 772 772 769 759 768 765 725 702 701 700 706 708 702 699 695 691 688 687 686 687 691 696
813 814 813 814 813 813 812 811 809 807 807 806 807 808 804 807 807 799 813 810 762 739 753 758 762 765 765 772 772 770 773 771 771 775 777 778 777 777 778 772 767 769 770 771 769 764 767 776 774 773 778 772 769 775 773 768 769 778 782 778 778 780 778 780 781 778 777 779 771 757 764 765 723 691 698 705 705 705 698 693 690 685 682 682 681 683 687 691
812 812 812 813 813 813 812 810 809 807 806 807 807 807 806 808 803 805 818 794 749 745 759 759 761 761 763 770 771 771 773 772 774 777 778 777 776 777 777 774 773 773 774 773 770 768 772 778 777 773 770 767 774 785 787 781 779 782 781 777 781 780 778 782 777 778 786 773 754 746 751 760 735 697 694 702 697 693 690 689 686 680 678 677 677 680 684 687
808 810 811 811 811 812 811 809 808 806 807 807 806 808 808 804 801 806 799 766 746 755 758 759 761 758 760 762 762 768 771 771 773 776 776 776 778 778 777 776 778 780 780 779 773 768 772 777 774 769 768 769 776 783 787 788 785 782 778 776 779 777 777 783 779 785 791 762 734 731 736 749 739 702 688 688 682 680 681 683 681 677 676 674 674 677 680 683
805 806 808 809 809 810 810 809 808 807 808 806 807 807 805 805 802 790 771 753 752 753 746 751 757 755 757 756 756 763 766 766 768 770 771 774 776 775 774 770 771 777 777 771 769 766 766 766 762 766 771 770 771 776 784 788 786 782 777 777 783 781 779 783 780 780 776 748 726 726 732 737 719 691 683 681 677 678 675 674 676 674 673 670 670 674 677 681
801 802 804 805 806 807 808 808 809 810 808 807 809 804 803 809 790 761 754 754 749 743 739 744 750 752 756 757 757 760 762 760 761 765 765 768 772 769 766 762 760 765 763 760 764 763 759 757 759 766 767 764 763 765 771 775 779 778 772 773 780 780 783 783 773 764 753 735 725 729 735 731 707 684 678 675 673 674 670 670 672 670 669 667 667 672 675 680
797 799 799 800 802 803 805 807 808 810 809 809 810 806 808 803 767 741 747 746 738 740 743 746 750 754 755 753 750 751 757 757 755 761 763 765 771 768 762 759 757 759 761 762 761 758 758 752 751 755 752 752 754 749 748 755 767 769 759 761 766 765 772 772 758 750 743 731 728 738 739 721 700 682 668 664 665 666 668 668 668 667 665 666 670 673 676 680
793 794 795 796 798 799 802 805 806 809 810 808 809 809 804 783 753 743 744 736 736 742 747 750 752 755 755 751 749 745 747 750 751 758 762 760 761 757 752 750 752 755 762 767 757 753 758 744 736 746 745 744 748 742 741 749 759 761 754 761 762 752 754 756 746 741 748 748 737 735 728 700 682 670 660 663 663 661 666 667 667 667 663 665 670 672 675 679
789 789 791 791 791 794 798 802 804 807 808 805 809 808 788 760 745 744 737 731 736 740 749 755 752 755 753 748 750 748 745 748 752 756 756 753 750 745 741 738 740 746 751 755 750 747 753 744 740 752 749 747 752 746 744 747 750 756 758 759 754 747 747 753 750 742 753 760 734 717 713 692 679 668 655 661 665 661 665 666 664 663 660 663 666 667 672 676
785 784 785 783 783 786 791 796 800 805 807 804 803 795 773 751 740 737 733 732 733 734 745 751 745 746 747 742 744 746 747 750 752 753 749 748 742 733 734 732 729 735 736 736 739 738 742 743 744 751 750 753 759 753 749 748 745 751 757 750 745 751 753 755 759 753 754 755 727 708 708 697 690 678 657 660 667 663 664 663 660 659 659 660 661 663 667 671
780 780 779 774 774 779 785 792 796 800 806 807 801 783 762 749 739 734 734 734 734 734 741 743 735 733 736 736 733 735 745 747 748 751 745 740 732 718 725 730 724 726 726 729 738 736 738 744 746 753 755 756 760 756 751 751 749 750 752 747 747 754 754 753 760 760 757 753 730 711 704 692 684 676 664 665 666 661 660 658 656 657 657 658 659 660 663 667
776 777 773 765 768 774 780 787 792 799 805 806 802 782 759 748 741 735 734 733 733 736 737 735 731 728 728 728 725 728 738 737 738 745 739 732 725 711 713 720 720 722 720 727 737 734 736 742 743 755 761 756 757 755 747 747 753 756 754 750 748 749 745 742 745 744 744 745 732 720 709 684 663 658 657 659 658 656 656 653 653 654 654 655 656 658 660 663
774 775 768 762 766 773 779 785 790 798 800 797 792 777 759 751 745 739 736 734 734 734 734 731 729 728 725 722 722 723 729 729 728 734 730 722 718 710 708 710 714 719 718 723 729 729 737 740 738 754 765 755 746 742 734 731 740 751 754 750 748 747 745 744 739 728 729 735 731 729 717 679 648 645 647 648 650 650 649 648 650 651 650 651 653 655 657 660
772 771 766 762 765 770 779 787 788 791 794 790 782 773 763 756 749 743 739 738 737 733 731 730 729 727 723 722 721 719 723 727 725 724 723 716 713 710 705 703 706 714 721 728 729 727 735 736 733 744 755 745 728 719 717 715 716 727 733 733 734 736 741 748 742 725 723 728 722 723 717 675 641 641 645 643 645 645 644 645 647 649 650 651 652 653 654 657
770 767 763 764 766 768 775 782 782 786 789 781 771 765 762 758 751 747 744 741 742 738 734 733 731 727 723 721 719 716 719 724 722 720 717 710 708 705 701 700 701 706 715 724 722 716 720 729 731 731 728 723 718 716 717 715 712 715 717 715 717 722 727 734 732 721 721 724 715 714 710 671 636 638 646 643 643 644 644 645 645 648 649 649 650 651 652 653
768 766 765 766 766 766 773 780 782 784 780 769 762 760 759 757 753 748 746 744 743 741 739 736 731 728 724 720 719 717 718 718 716 714 713 710 707 702 699 700 701 704 709 713 714 713 718 728 733 730 720 712 713 719 723 723 721 719 715 711 711 712 711 713 714 712 714 717 711 710 707 673 639 638 646 644 643 644 645 645 645 646 647 647 648 649 650 652
764 765 767 767 765 763 766 770 773 776 773 768 766 762 757 756 753 748 745 744 743 741 740 735 729 727 724 721 721 722 721 721 716 711 711 713 708 702 700 700 702 707 708 706 708 711 718 725 729 735 735 728 723 721 723 728 728 720 713 710 708 707 708 708 709 713 715 708 699 700 696 668 640 639 645 643 641 642 643 643 643 643 645 646 646 648 649 650
763 763 764 765 764 762 758 754 756 762 768 769 767 761 758 754 749 745 742 741 739 739 738 733 729 727 725 724 725 724 723 725 722 715 713 714 710 707 708 705 704 706 705 704 705 706 712 716 719 729 738 738 732 718 711 719 726 721 714 710 709 709 711 711 712 718 713 696 690 693 682 658 643 643 642 638 639 641 639 638 641 643 643 644 644 646 647 648
762 759 761 766 765 761 755 750 751 753 757 763 763 757 756 753 744 739 740 739 737 735 734 731 730 731 729 728 728 727 727 727 727 725 724 722 717 713 715 714 711 710 710 711 711 711 713 711 708 713 718 720 720 709 701 706 715 718 715 711 710 710 708 711 714 709 696 687 688 685 671 661 658 655 647 638 637 640 637 634 638 641 643 644 644 644 644 645
761 752 753 760 761 758 755 752 752 749 746 751 753 746 745 746 741 736 735 733 730 731 733 732 731 732 731 730 730 729 728 729 730 732 732 729 724 718 718 719 716 714 715 716 715 714 717 714 706 704 704 704 705 702 699 700 703 706 708 709 710 709 709 714 709 693 687 693 690 674 665 668 668 661 651 641 638 639 635 631 632 634 637 640 641 643 643 643
758 747 742 746 747 748 751 748 747 747 743 743 742 736 733 735 737 735 731 726 725 727 732 732 729 727 726 727 729 730 730 732 733 734 733 733 730 725 721 718 715 715 718 719 718 717 718 716 709 706 706 704 703 702 700 698 694 694 698 699 700 704 708 707 696 686 691 695 684 670 668 670 666 659 651 641 637 636 631 627 626 627 630 633 637 641 641 639
755 749 744 742 739 736 737 736 737 740 741 741 738 733 731 729 726 725 722 723 724 723 725 726 723 720 719 719 723 726 728 729 728 729 731 731 727 724 721 715 713 716 716 715 716 717 717 715 712 712 713 711 710 708 704 700 697 695 695 694 694 696 694 688 684 687 692 685 673 669 671 667 660 655 648 639 633 630 627 625 624 625 626 628 634 637 632 630
755 752 748 746 743 738 736 735 737 739 739 740 737 731 729 725 719 716 713 716 720 718 718 718 714 710 710 711 715 717 716 714 711 710 715 719 719 719 716 711 709 713 714 713 714 715 715 713 710 714 718 715 712 710 707 704 702 699 698 699 699 694 684 679 681 684 685 679 671 672 675 669 658 649 642 636 630 629 628 625 624 624 620 622 630 631 625 622
756 754 753 751 746 740 737 735 736 737 735 735 733 728 724 720 715 712 706 702 705 707 708 708 706 703 703 705 707 707 704 703 700 696 695 699 702 703 702 700 701 708 714 716 715 714 714 712 711 716 720 714 708 707 705 704 705 706 707 704 696 686 678 678 678 674 672 673 671 673 674 666 652 641 637 633 630 629 626 623 624 622 615 618 625 624 619 618
759 756 755 754 747 739 735 733 732 731 728 725 725 723 720 715 712 712 708 699 696 697 697 697 698 699 698 698 698 694 691 689 688 686 684 684 686 691 694 695 696 701 710 715 716 715 714 713 712 714 716 711 703 701 702 708 714 713 700 685 676 675 678 678 672 663 660 663 665 663 657 648 640 636 634 631 626 623 619 620 622 617 611 615 618 615 614 614